Time,TemperatureF,DewpointF,PressureIn,WindDirection,WindDirectionDegrees,WindSpeedMPH,WindSpeedGustMPH,Humidity,HourlyPrecipIn,Conditions,Clouds,dailyrainin,SoftwareType,DateUTC
2013-10-30 00:13:00,47.1,46.8,29.84,North,-999,0.0,-999.0,99,-99.99,,,-99.99,Acu-Link.com,2013-10-30 05:13:00,
2013-10-30 00:28:00,46.6,46.3,29.84,North,-999,0.0,-999.0,99,-99.99,,,-99.99,Acu-Link.com,2013-10-30 05:28:00,
2013-10-30 00:44:00,46.2,45.9,29.83,North,-999,1.6,-999.0,99,-99.99,,,-99.99,Acu-Link.com,2013-10-30 05:44:00,
2013-10-30 00:59:00,46.2,45.9,29.84,North,-999,0.0,-999.0,99,-99.99,,,-99.99,Acu-Link.com,2013-10-30 05:59:00,
2013-10-30 01:14:00,46.0,45.7,29.83,North,-999,0.0,-999.0,99,-99.99,,,-99.99,Acu-Link.com,2013-10-30 06:14:00,
2013-10-30 01:30:00,45.6,45.3,29.83,North,-999,1.6,-999.0,99,-99.99,,,-99.99,Acu-Link.com,2013-10-30 06:30:00,
2013-10-30 01:45:00,45.1,44.8,29.84,North,-999,0.0,-999.0,99,-99.99,,,-99.99,Acu-Link.com,2013-10-30 06:45:00,
2013-10-30 02:01:00,45.0,44.7,29.83,North,-999,0.0,-999.0,99,-99.99,,,-99.99,Acu-Link.com,2013-10-30 07:01:00,
2013-10-30 02:17:00,44.8,44.5,29.83,North,-999,0.0,-999.0,99,-99.99,,,-99.99,Acu-Link.com,2013-10-30 07:17:00,
2013-10-30 02:32:00,44.4,44.1,29.83,North,-999,0.0,-999.0,99,-99.99,,,-99.99,Acu-Link.com,2013-10-30 07:32:00,
2013-10-30 02:47:00,44.4,44.1,29.83,North,-999,0.0,-999.0,99,-99.99,,,-99.99,Acu-Link.com,2013-10-30 07:47:00,
2013-10-30 03:02:00,44.2,43.9,29.83,North,-999,0.0,-999.0,99,-99.99,,,-99.99,Acu-Link.com,2013-10-30 08:02:00,
2013-10-30 03:18:00,44.0,43.7,29.83,North,-999,0.0,-999.0,99,-99.99,,,-99.99,Acu-Link.com,2013-10-30 08:18:00,
2013-10-30 03:33:00,43.8,43.5,29.81,North,-999,0.0,-999.0,99,-99.99,,,-99.99,Acu-Link.com,2013-10-30 08:33:00,
2013-10-30 03:48:00,43.7,43.4,29.82,North,-999,0.0,-999.0,99,-99.99,,,-99.99,Acu-Link.com,2013-10-30 08:48:00,
2013-10-30 04:03:00,43.7,43.4,29.82,North,-999,0.0,-999.0,99,-99.99,,,-99.99,Acu-Link.com,2013-10-30 09:03:00,
2013-10-30 04:19:00,43.5,43.2,29.82,North,-999,0.0,-999.0,99,-99.99,,,-99.99,Acu-Link.com,2013-10-30 09:19:00,
2013-10-30 04:34:00,43.3,43.0,29.81,North,-999,0.0,-999.0,99,-99.99,,,-99.99,Acu-Link.com,2013-10-30 09:34:00,
2013-10-30 04:49:00,43.1,42.8,29.79,North,-999,6.4,-999.0,99,-99.99,,,-99.99,Acu-Link.com,2013-10-30 09:49:00,
2013-10-30 05:04:00,42.8,42.5,29.79,North,-999,4.8,-999.0,99,-99.99,,,-99.99,Acu-Link.com,2013-10-30 10:04:00,
2013-10-30 05:19:00,42.8,42.5,29.78,North,-999,1.6,-999.0,99,-99.99,,,-99.99,Acu-Link.com,2013-10-30 10:19:00,
2013-10-30 05:35:00,42.7,42.4,29.80,North,-999,0.0,-999.0,99,-99.99,,,-99.99,Acu-Link.com,2013-10-30 10:35:00,
2013-10-30 05:50:00,42.8,42.5,29.79,North,-999,0.0,-999.0,99,-99.99,,,-99.99,Acu-Link.com,2013-10-30 10:50:00,
2013-10-30 06:05:00,42.9,42.6,29.79,North,-999,0.0,-999.0,99,-99.99,,,-99.99,Acu-Link.com,2013-10-30 11:05:00,
2013-10-30 06:20:00,43.1,42.8,29.77,North,-999,4.8,-999.0,99,-99.99,,,-99.99,Acu-Link.com,2013-10-30 11:20:00,
2013-10-30 06:35:00,43.2,42.9,29.76,North,-999,0.0,-999.0,99,-99.99,,,-99.99,Acu-Link.com,2013-10-30 11:35:00,
2013-10-30 06:50:00,43.2,42.9,29.78,North,-999,1.6,-999.0,99,-99.99,,,-99.99,Acu-Link.com,2013-10-30 11:50:00,
2013-10-30 07:05:00,42.9,42.6,29.79,North,-999,1.6,-999.0,99,-99.99,,,-99.99,Acu-Link.com,2013-10-30 12:05:00,
2013-10-30 07:21:00,42.7,42.4,29.79,North,-999,0.0,-999.0,99,-99.99,,,-99.99,Acu-Link.com,2013-10-30 12:21:00,
2013-10-30 07:36:00,42.4,42.1,29.78,North,-999,3.2,-999.0,99,-99.99,,,-99.99,Acu-Link.com,2013-10-30 12:36:00,
2013-10-30 07:52:00,42.4,42.1,29.78,North,-999,3.2,-999.0,99,-99.99,,,-99.99,Acu-Link.com,2013-10-30 12:52:00,
2013-10-30 08:07:00,42.4,42.1,29.77,North,-999,0.0,-999.0,99,-99.99,,,-99.99,Acu-Link.com,2013-10-30 13:07:00,
2013-10-30 08:22:00,42.4,42.1,29.76,North,-999,3.2,-999.0,99,-99.99,,,-99.99,Acu-Link.com,2013-10-30 13:22:00,
2013-10-30 08:38:00,42.3,42.0,29.75,North,-999,8.0,-999.0,99,-99.99,,,-99.99,Acu-Link.com,2013-10-30 13:38:00,
2013-10-30 08:53:00,42.2,41.9,29.74,North,-999,4.8,-999.0,99,-99.99,,,-99.99,Acu-Link.com,2013-10-30 13:53:00,
2013-10-30 09:08:00,42.3,42.0,29.73,North,-999,3.2,-999.0,99,-99.99,,,-99.99,Acu-Link.com,2013-10-30 14:08:00,
2013-10-30 09:24:00,42.5,42.2,29.78,North,-999,0.0,-999.0,99,-99.99,,,-99.99,Acu-Link.com,2013-10-30 14:24:00,
2013-10-30 09:39:00,42.6,42.3,29.79,North,-999,0.0,-999.0,99,-99.99,,,-99.99,Acu-Link.com,2013-10-30 14:39:00,
2013-10-30 09:54:00,42.8,42.5,29.78,North,-999,1.6,-999.0,99,-99.99,,,-99.99,Acu-Link.com,2013-10-30 14:54:00,
2013-10-30 10:09:00,43.3,43.0,29.76,North,-999,0.0,-999.0,99,-99.99,,,-99.99,Acu-Link.com,2013-10-30 15:09:00,
2013-10-30 10:24:00,43.8,43.5,29.76,North,-999,0.0,-999.0,99,-99.99,,,-99.99,Acu-Link.com,2013-10-30 15:24:00,
2013-10-30 10:39:00,44.5,44.2,29.75,North,-999,3.2,-999.0,99,-99.99,,,-99.99,Acu-Link.com,2013-10-30 15:39:00,
2013-10-30 10:54:00,45.4,45.1,29.75,North,-999,0.0,-999.0,99,-99.99,,,-99.99,Acu-Link.com,2013-10-30 15:54:00,
2013-10-30 11:10:00,47.7,47.4,29.76,North,-999,0.0,-999.0,99,-99.99,,,-99.99,Acu-Link.com,2013-10-30 16:10:00,
2013-10-30 11:25:00,47.2,46.9,29.74,North,-999,0.0,-999.0,99,-99.99,,,-99.99,Acu-Link.com,2013-10-30 16:25:00,
2013-10-30 11:40:00,48.7,48.4,29.74,North,-999,0.0,-999.0,99,-99.99,,,-99.99,Acu-Link.com,2013-10-30 16:40:00,
2013-10-30 11:55:00,49.6,49.3,29.74,North,-999,1.6,-999.0,99,-99.99,,,-99.99,Acu-Link.com,2013-10-30 16:55:00,
2013-10-30 12:11:00,50.7,50.4,29.72,North,-999,1.6,-999.0,99,-99.99,,,-99.99,Acu-Link.com,2013-10-30 17:11:00,
2013-10-30 12:26:00,53.2,52.9,29.71,North,-999,3.2,-999.0,99,-99.99,,,-99.99,Acu-Link.com,2013-10-30 17:26:00,
2013-10-30 12:42:00,54.2,53.9,29.72,North,-999,3.2,-999.0,99,-99.99,,,-99.99,Acu-Link.com,2013-10-30 17:42:00,
2013-10-30 12:57:00,53.3,53.0,29.73,North,-999,0.0,-999.0,99,-99.99,,,-99.99,Acu-Link.com,2013-10-30 17:57:00,
2013-10-30 13:12:00,57.1,56.8,29.68,North,-999,3.2,-999.0,99,-99.99,,,-99.99,Acu-Link.com,2013-10-30 18:12:00,
2013-10-30 13:28:00,59.2,58.9,29.68,North,-999,0.0,-999.0,99,-99.99,,,-99.99,Acu-Link.com,2013-10-30 18:28:00,
2013-10-30 13:43:00,58.6,57.8,29.68,North,-999,0.0,-999.0,97,-99.99,,,-99.99,Acu-Link.com,2013-10-30 18:43:00,
2013-10-30 13:58:00,56.2,55.4,29.69,North,-999,0.0,-999.0,97,-99.99,,,-99.99,Acu-Link.com,2013-10-30 18:58:00,
2013-10-30 14:13:00,54.1,53.8,29.68,North,-999,0.0,-999.0,99,-99.99,,,-99.99,Acu-Link.com,2013-10-30 19:13:00,
2013-10-30 14:28:00,52.5,52.2,29.67,North,-999,0.0,-999.0,99,-99.99,,,-99.99,Acu-Link.com,2013-10-30 19:28:00,
2013-10-30 14:44:00,52.5,52.0,29.67,North,-999,1.6,-999.0,98,-99.99,,,-99.99,Acu-Link.com,2013-10-30 19:44:00,
2013-10-30 14:59:00,51.8,51.5,29.67,North,-999,0.0,-999.0,99,-99.99,,,-99.99,Acu-Link.com,2013-10-30 19:59:00,
2013-10-30 15:14:00,51.1,50.8,29.68,North,-999,0.0,-999.0,99,-99.99,,,-99.99,Acu-Link.com,2013-10-30 20:14:00,
2013-10-30 15:30:00,50.2,49.9,29.67,North,-999,0.0,-999.0,99,-99.99,,,-99.99,Acu-Link.com,2013-10-30 20:30:00,
2013-10-30 15:45:00,49.6,49.3,29.67,North,-999,3.2,-999.0,99,-99.99,,,-99.99,Acu-Link.com,2013-10-30 20:45:00,
2013-10-30 16:00:00,49.1,48.8,29.66,North,-999,0.0,-999.0,99,-99.99,,,-99.99,Acu-Link.com,2013-10-30 21:00:00,
2013-10-30 16:16:00,48.5,48.2,29.65,North,-999,0.0,-999.0,99,-99.99,,,-99.99,Acu-Link.com,2013-10-30 21:16:00,
2013-10-30 16:31:00,47.9,47.6,29.65,North,-999,0.0,-999.0,99,-99.99,,,-99.99,Acu-Link.com,2013-10-30 21:31:00,
2013-10-30 16:46:00,47.8,47.5,29.65,North,-999,0.0,-999.0,99,-99.99,,,-99.99,Acu-Link.com,2013-10-30 21:46:00,
2013-10-30 17:01:00,47.5,47.2,29.65,North,-999,3.2,-999.0,99,-99.99,,,-99.99,Acu-Link.com,2013-10-30 22:01:00,
2013-10-30 17:17:00,46.7,46.4,29.65,North,-999,3.2,-999.0,99,-99.99,,,-99.99,Acu-Link.com,2013-10-30 22:17:00,
2013-10-30 17:32:00,46.2,45.9,29.65,North,-999,0.0,-999.0,99,-99.99,,,-99.99,Acu-Link.com,2013-10-30 22:32:00,
2013-10-30 17:47:00,46.1,45.8,29.65,North,-999,0.0,-999.0,99,-99.99,,,-99.99,Acu-Link.com,2013-10-30 22:47:00,
2013-10-30 18:03:00,45.8,45.5,29.65,North,-999,0.0,-999.0,99,-99.99,,,-99.99,Acu-Link.com,2013-10-30 23:03:00,
2013-10-30 18:18:00,45.7,45.4,29.65,North,-999,0.0,-999.0,99,-99.99,,,-99.99,Acu-Link.com,2013-10-30 23:18:00,
2013-10-30 18:33:00,45.5,45.2,29.65,North,-999,0.0,-999.0,99,-99.99,,,-99.99,Acu-Link.com,2013-10-30 23:33:00,
2013-10-30 18:48:00,45.1,44.8,29.65,North,-999,0.0,-999.0,99,-99.99,,,-99.99,Acu-Link.com,2013-10-30 23:48:00,
2013-10-30 19:03:00,44.8,44.5,29.65,North,-999,1.6,-999.0,99,-99.99,,,-99.99,Acu-Link.com,2013-10-31 00:03:00,
2013-10-30 19:18:00,44.4,44.1,29.64,North,-999,0.0,-999.0,99,-99.99,,,-99.99,Acu-Link.com,2013-10-31 00:18:00,
2013-10-30 19:33:00,44.4,44.1,29.64,North,-999,0.0,-999.0,99,-99.99,,,-99.99,Acu-Link.com,2013-10-31 00:33:00,
2013-10-30 19:49:00,44.5,44.2,29.64,North,-999,0.0,-999.0,99,-99.99,,,-99.99,Acu-Link.com,2013-10-31 00:49:00,
2013-10-30 20:13:00,44.7,44.4,29.65,North,-999,3.2,-999.0,99,-99.99,,,-99.99,Acu-Link.com,2013-10-31 01:13:00,
2013-10-30 20:29:00,44.7,44.4,29.66,North,-999,0.0,-999.0,99,-99.99,,,-99.99,Acu-Link.com,2013-10-31 01:29:00,
2013-10-30 20:44:00,44.7,44.4,29.66,North,-999,0.0,-999.0,99,-99.99,,,-99.99,Acu-Link.com,2013-10-31 01:44:00,
2013-10-30 20:59:00,44.5,44.2,29.65,North,-999,1.6,-999.0,99,-99.99,,,-99.99,Acu-Link.com,2013-10-31 01:59:00,
2013-10-30 21:14:00,44.3,44.0,29.65,North,-999,0.0,-999.0,99,-99.99,,,-99.99,Acu-Link.com,2013-10-31 02:14:00,
2013-10-30 21:30:00,44.0,43.7,29.65,North,-999,0.0,-999.0,99,-99.99,,,-99.99,Acu-Link.com,2013-10-31 02:30:00,
2013-10-30 21:45:00,43.6,43.3,29.66,North,-999,0.0,-999.0,99,-99.99,,,-99.99,Acu-Link.com,2013-10-31 02:45:00,
2013-10-30 22:00:00,43.3,43.0,29.66,North,-999,1.6,-999.0,99,-99.99,,,-99.99,Acu-Link.com,2013-10-31 03:00:00,
2013-10-30 22:16:00,43.3,43.0,29.66,North,-999,3.2,-999.0,99,-99.99,,,-99.99,Acu-Link.com,2013-10-31 03:16:00,
2013-10-30 22:31:00,43.2,42.9,29.66,North,-999,0.0,-999.0,99,-99.99,,,-99.99,Acu-Link.com,2013-10-31 03:31:00,
2013-10-30 22:46:00,42.2,41.9,29.65,North,-999,0.0,-999.0,99,-99.99,,,-99.99,Acu-Link.com,2013-10-31 03:46:00,
2013-10-30 23:01:00,41.0,40.7,29.66,North,-999,0.0,-999.0,99,-99.99,,,-99.99,Acu-Link.com,2013-10-31 04:01:00,
2013-10-30 23:16:00,39.9,39.6,29.65,North,-999,0.0,-999.0,99,-99.99,,,-99.99,Acu-Link.com,2013-10-31 04:16:00,
2013-10-30 23:32:00,39.4,39.1,29.64,North,-999,0.0,-999.0,99,-99.99,,,-99.99,Acu-Link.com,2013-10-31 04:32:00,
2013-10-30 23:47:00,38.5,38.2,29.64,North,-999,0.0,-999.0,99,-99.99,,,-99.99,Acu-Link.com,2013-10-31 04:47:00,